Regional Weather Roundup
Issued by NWS

Home | Current Version | Previous Version | Graphics & Text | Print | Product List | Glossary On
Versions: 1 2 3 4 5 6 7 8 9 10 11 12 13 14 15 16 17 18 19 20 21 22 23 24 25 26 27 28 29 30 31 32 33 34 35 36 37 38 39 40 41 42 43 44 45 46 47 48 49 50
000
ASUS43 KFSD 270610
RWRSD

WEATHER ROUNDUP FOR SOUTH DAKOTA
NATIONAL WEATHER SERVICE SIOUX FALLS SD
100 AM CDT FRI APR 27 2018

NOTE: "FAIR" INDICATES FEW OR NO CLOUDS BELOW 12,000 FEET WITH NO
SIGNIFICANT WEATHER AND/OR OBSTRUCTIONS TO VISIBILITY.


SDZ001>005-009-010-012>017-270700-
NORTHWEST AND NORTH CENTRAL SOUTH DAKOTA

CITY           SKY/WX    TMP DP  RH WIND       PRES   REMARKS
BUFFALO          N/A     44  33  65 W9        30.00F
FAITH            N/A     47  34  60 W8        30.04F
MOBRIDGE       CLEAR     47  33  58 NW6       29.93F
$$

SDZ012>016-024>037-041>051-057-063-072>074-270700-
SOUTHWEST AND SOUTH CENTRAL SOUTH DAKOTA

CITY           SKY/WX    TMP DP  RH WIND       PRES   REMARKS
RAPID CTY ARPT CLEAR     43  30  60 W7        30.10S
PIERRE         CLEAR     46  32  58 W9        30.00F
CUSTER         CLEAR     44  22  41 VRB3      30.15F
ELLSWORTH AFB  CLEAR     45  31  57 W5        30.09F
PHILIP         CLEAR     43  32  65 W10       30.06S
PINE RIDGE     CLEAR     36  32  85 CALM      30.12F
SPEARFISH      FAIR      48  28  46 W9        30.11S
WINNER         FAIR      47  30  51 SW7       30.04F
$$

SDZ004>011-016>023-039-040-270700-
NORTHEAST SOUTH DAKOTA

CITY           SKY/WX    TMP DP  RH WIND       PRES   REMARKS
ABERDEEN       CLEAR     39  30  70 SW9       29.92F
WATERTOWN      MOCLDY    43  33  68 S13       29.93F
BROOKINGS      CLEAR     42  36  79 S9        29.98F
SISSETON         N/A     47  32  56 S10G20    29.85F
$$

SDZ017-020-022-023-036>040-048>070-270700-
SOUTHEAST SOUTH DAKOTA

CITY           SKY/WX    TMP DP  RH WIND       PRES   REMARKS
SIOUX FALLS    CLEAR     37  31  78 CALM      30.02F
HURON          CLEAR     45  33  63 SW7       29.97F
CHAMBERLAIN    CLEAR     45  32  60 SW6       30.02S
MITCHELL       CLEAR     46  33  60 SW8       30.01F
YANKTON        CLEAR     41  34  76 E3        30.03F
$$

ABBREVIATIONS USED IN REMARKS
   TC - TEMPERATURE IN CELSIUS
  WCI - WIND CHILL INDEX
   HX - HEAT INDEX
  VSB - VISIBILITY




USA.gov is the U.S. government's official web portal to all federal, state and local government web resources and services.